GW0323 Weather Reports


time (UTC)temp
C
wind
direction
speed
KPH
gust
KPH
rain 1hr
cm
rain 24hr
cm
rain mn
cm
humidity
%
barometer
mb
20260506161127 6 333 6.4 22.5 0.00 0.00 0.00 60 1015.6
20260506160612 6 340 8.0 27.4 0.00 0.00 0.00 55 1015.5
20260506160116 5 254 4.8 27.4 0.00 0.00 0.00 55 1015.6
20260506155641 5 242 11.3 22.5 0.00 0.00 0.00 56 1015.4
20260506155123 5 284 8.0 25.7 0.00 0.00 0.00 52 1015.5
20260506154646 5 26 8.0 20.9 0.00 0.00 0.00 52 1015.5
20260506154127 5 5 11.3 25.7 0.00 0.00 0.00 52 1015.3
20260506153629 6 350 12.9 20.9 0.00 0.00 0.00 56 1015.3
20260506153133 5 150 4.8 33.8 0.00 0.00 0.00 54 1015.4
20260506152614 5 336 20.9 33.8 0.00 0.00 0.00 54 1015.4
20260506152117 5 252 8.0 27.4 0.00 0.00 0.00 56 1015.3
20260506151622 5 292 11.3 25.7 0.00 0.00 0.00 54 1015.3
20260506151123 5 350 9.7 25.7 0.00 0.00 0.00 53 1015.4
20260506150624 5 321 3.2 29.0 0.00 0.00 0.00 55 1015.5
20260506150126 5 37 16.1 29.0 0.00 0.00 0.00 53 1015.5
20260506145629 5 10 11.3 32.2 0.00 0.00 0.00 53 1015.5
20260506145112 5 308 19.3 35.4 0.00 0.00 0.00 53 1015.5
20260506144635 5 252 11.3 35.4 0.00 0.00 0.00 56 1015.5
20260506144116 5 304 8.0 24.1 0.00 0.00 0.00 54 1015.4
20260506143619 5 337 8.0 24.1 0.00 0.00 0.00 54 1015.4
20260506143122 5 298 17.7 24.1 0.00 0.00 0.00 54 1015.4
20260506142627 5 309 9.7 24.1 0.00 0.00 0.00 55 1015.2
20260506142131 4 317 12.9 25.7 0.00 0.00 0.00 56 1015.2
20260506141612 4 282 9.7 25.7 0.00 0.00 0.00 55 1015.2
20260506141117 4 290 4.8 25.7 0.00 0.00 0.00 53 1015.1
20260506140619 4 284 16.1 25.7 0.00 0.00 0.00 57 1015.0
20260506140123 4 74 9.7 24.1 0.00 0.00 0.00 53 1015.0
20260506135627 4 350 8.0 20.9 0.00 0.00 0.00 55 1014.9
20260506135150 4 9 11.3 20.9 0.00 0.00 0.00 56 1014.9
20260506134630 4 294 14.5 22.5 0.00 0.00 0.00 57 1014.8
20260506134113 4 325 3.2 25.7 0.00 0.00 0.00 57 1014.8
20260506133616 3 350 12.9 25.7 0.00 0.00 0.00 56 1014.8
20260506133120 3 29 3.2 20.9 0.00 0.00 0.00 58 1014.8
20260506132621 3 270 4.8 19.3 0.00 0.00 0.00 60 1014.8
20260506132124 3 279 12.9 19.3 0.00 0.00 0.00 62 1014.9
20260506131646 3 56 6.4 16.1 0.00 0.00 0.00 63 1014.9
20260506131128 3 31 4.8 12.9 0.00 0.00 0.00 60 1014.9
20260506130613 3 252 0.0 9.7 0.00 0.00 0.00 63 1014.7
20260506130114 2 342 3.2 12.9 0.00 0.00 0.00 61 1014.7
20260506125616 2 342 6.4 17.7 0.00 0.00 0.00 63 1014.5
20260506125119 2 286 9.7 24.1 0.00 0.00 0.00 64 1014.5
20260506124621 2 271 11.3 24.1 0.00 0.00 0.00 64 1014.5
20260506124145 2 296 12.9 20.9 0.00 0.00 0.00 65 1014.6
20260506123629 2 284 14.5 20.9 0.00 0.00 0.00 64 1014.6
20260506123131 2 309 11.3 24.1 0.00 0.00 0.00 65 1014.5
20260506122614 2 266 14.5 24.1 0.00 0.00 0.00 65 1014.4
20260506122117 2 275 12.9 24.1 0.00 0.00 0.00 66 1014.2
20260506121621 1 261 8.0 20.9 0.00 0.00 0.00 65 1014.1
20260506121124 1 287 9.7 20.9 0.00 0.00 0.00 66 1014.0
20260506120646 1 334 11.3 20.9 0.00 0.00 0.00 66 1013.9
20260506120128 1 284 8.0 25.7 0.00 0.00 0.00 67 1013.8
20260506115630 1 263 8.0 25.7 0.00 0.00 0.00 67 1013.9
20260506115112 1 311 8.0 17.7 0.00 0.00 0.00 68 1014.0
20260506114615 1 284 8.0 17.7 0.00 0.00 0.00 68 1013.9
20260506114137 1 267 11.3 17.7 0.00 0.00 0.00 67 1014.0
20260506113619 1 295 6.4 20.9 0.00 0.00 0.00 68 1014.0
20260506113120 1 319 12.9 20.9 0.00 0.00 0.00 69 1013.9
20260506112624 1 5 8.0 16.1 0.00 0.00 0.00 70 1013.8
20260506112126 1 287 4.8 16.1 0.00 0.00 0.00 72 1013.7
20260506111627 1 343 3.2 9.7 0.00 0.00 0.00 72 1013.5
20260506111130 1 335 3.2 8.0 0.00 0.00 0.00 70 1013.4
20260506110633 1 325 3.2 8.0 0.00 0.00 0.00 72 1013.4
20260506110115 1 325 4.8 8.0 0.00 0.00 0.00 72 1013.3
20260506105617 1 340 4.8 6.4 0.00 0.00 0.00 72 1013.2
20260506105118 1 340 3.2 6.4 0.00 0.00 0.00 71 1013.2
20260506104622 1 340 3.2 6.4 0.00 0.00 0.00 70 1013.1
20260506104124 1 340 1.6 4.8 0.00 0.00 0.00 70 1013.1
20260506103628 1 340 3.2 8.0 0.00 0.00 0.00 70 1013.0
20260506103150 1 340 4.8 12.9 0.00 0.00 0.00 69 1013.1
20260506102631 1 320 8.0 12.9 0.00 0.00 0.00 70 1013.2
20260506102136 1 342 6.4 8.0 0.00 0.00 0.00 70 1013.2
20260506101616 1 341 4.8 9.7 0.00 0.00 0.00 70 1013.2
20260506101114 1 341 4.8 9.7 0.00 0.00 0.00 71 1013.3
20260506100616 1 340 6.4 9.7 0.00 0.00 0.00 70 1013.1
20260506100118 1 12 4.8 6.4 0.00 0.00 0.00 70 1013.1
20260506095620 1 9 3.2 8.0 0.00 0.00 0.00 69 1013.1
20260506095122 2 338 3.2 9.7 0.00 0.00 0.00 68 1013.0
20260506094624 2 350 6.4 9.7 0.00 0.00 0.00 68 1012.8
20260506094127 2 350 4.8 8.0 0.00 0.00 0.00 68 1012.7
20260506093630 2 350 4.8 8.0 0.00 0.00 0.00 68 1012.7
20260506093131 2 350 4.8 8.0 0.00 0.00 0.00 68 1012.6
20260506092612 2 342 6.4 8.0 0.00 0.00 0.00 67 1012.6
20260506092114 2 307 4.8 8.0 0.00 0.00 0.00 68 1012.7
20260506091617 2 323 6.4 8.0 0.00 0.00 0.00 66 1012.8
20260506091122 2 349 1.6 6.4 0.00 0.00 0.00 66 1012.7
20260506090625 2 350 4.8 6.4 0.00 0.00 0.00 67 1012.6
20260506090127 2 342 3.2 8.0 0.00 0.00 0.00 67 1012.5
20260506085631 2 346 1.6 8.0 0.00 0.00 0.00 67 1012.5
20260506085151 2 5 3.2 6.4 0.00 0.00 0.00 67 1012.4
20260506084613 2 5 1.6 6.4 0.00 0.00 0.00 66 1012.4
20260506084116 2 5 3.2 6.4 0.00 0.00 0.00 67 1012.4
20260506083619 2 24 3.2 6.4 0.00 0.00 0.00 67 1012.2
20260506083120 2 24 1.6 6.4 0.00 0.00 0.00 67 1012.3
20260506082626 2 25 3.2 6.4 0.00 0.00 0.00 66 1012.3
20260506082149 2 17 1.6 4.8 0.00 0.00 0.00 67 1012.3
20260506081631 2 18 3.2 6.4 0.00 0.00 0.00 67 1012.3
20260506081115 2 17 1.6 8.0 0.00 0.00 0.00 67 1012.4
20260506080619 2 18 3.2 8.0 0.00 0.00 0.00 67 1012.3
20260506080121 2 350 3.2 8.0 0.00 0.00 0.00 67 1012.2
20260506073116 3 17 3.2 6.4 0.00 0.00 0.00 62 1012.2
20260506072619 3 17 3.2 6.4 0.00 0.00 0.00 64 1012.1
20260506072121 3 17 3.2 6.4 0.00 0.00 0.00 64 1012.0
20260506071624 3 18 0.0 6.4 0.00 0.00 0.00 63 1011.8
20260506071129 3 18 4.8 6.4 0.00 0.00 0.00 64 1011.8
20260506070651 3 18 1.6 8.0 0.00 0.00 0.00 63 1011.8
20260506070135 3 15 1.6 9.7 0.00 0.00 0.00 64 1011.8
20260506062120 5 263 14.5 19.3 0.00 0.00 0.00 57 1011.6
20260506061623 5 323 9.7 17.7 0.00 0.00 0.00 55 1011.6
20260506061127 6 319 8.0 17.7 0.00 0.00 0.00 55 1011.6
20260506060630 6 306 11.3 19.3 0.00 0.00 0.00 56 1011.7
20260506060115 5 315 8.0 19.3 0.00 0.00 0.00 56 1011.7
20260506051145 3 329 3.2 8.0 0.00 0.00 0.00 70 1011.3
20260506050629 3 46 4.8 6.4 0.00 0.00 0.00 70 1011.2
20260506050152 3 338 1.6 9.7 0.00 0.00 0.00 70 1011.2
20260506045118 3 34 3.2 9.7 0.00 0.00 0.00 68 1011.1
20260506044640 4 292 3.2 8.0 0.00 0.00 0.00 64 1011.1
20260506044123 5 14 1.6 9.7 0.00 0.00 0.00 64 1011.0
20260506043627 5 349 6.4 9.7 0.00 0.00 0.00 58 1011.1
20260506043130 5 24 4.8 12.9 0.00 0.00 0.00 60 1011.1
20260506042614 5 20 4.8 8.0 0.00 0.00 0.00 61 1011.1
20260506042118 5 348 4.8 8.0 0.00 0.00 0.00 61 1011.1
20260506041620 4 10 3.2 8.0 0.00 0.00 0.00 65 1011.1
20260506041121 5 325 1.6 6.4 0.00 0.00 0.00 65 1011.1
20260506040623 5 338 1.6 6.4 0.00 0.00 0.00 63 1011.0
20260506040127 5 343 3.2 6.4 0.00 0.00 0.00 62 1011.0
20260506035624 4 343 3.2 6.4 0.00 0.00 0.00 68 1011.0
20260506035127 5 321 3.2 6.4 0.00 0.00 0.00 66 1011.0
20260506034630 5 336 1.6 6.4 0.00 0.00 0.00 66 1010.9
20260506034149 5 336 1.6 6.4 0.00 0.00 0.00 66 1010.9
20260506033631 5 308 0.0 6.4 0.00 0.00 0.00 65 1010.8
20260506033114 5 5 3.2 6.4 0.00 0.00 0.00 64 1010.9
20260506032618 6 9 1.6 4.8 0.00 0.00 0.00 62 1010.9
20260506032141 6 9 0.0 4.8 0.00 0.00 0.00 59 1010.9
20260506031623 7 9 1.6 4.8 0.00 0.00 0.00 53 1010.9
20260506031126 7 9 1.6 9.7 0.00 0.00 0.00 47 1010.9
20260506030629 7 360 6.4 9.7 0.00 0.00 0.00 47 1010.9
20260506030131 7 5 4.8 9.7 0.00 0.00 0.00 46 1010.8
20260506025613 7 32 3.2 9.7 0.00 0.00 0.00 47 1010.8
20260506025116 7 5 1.6 8.0 0.00 0.00 0.00 46 1010.8
20260506024619 7 349 0.0 8.0 0.00 0.00 0.00 47 1010.7
20260506024141 7 334 3.2 8.0 0.00 0.00 0.00 50 1010.7
20260506023625 7 350 4.8 9.7 0.00 0.00 0.00 48 1010.6
20260506023127 7 350 4.8 9.7 0.00 0.00 0.00 48 1010.6
20260506022629 7 301 0.0 8.0 0.00 0.00 0.00 49 1010.6
20260506022153 7 350 3.2 6.4 0.00 0.00 0.00 51 1010.5
20260506021615 7 349 4.8 6.4 0.00 0.00 0.00 49 1010.4
20260506021116 7 349 3.2 8.0 0.00 0.00 0.00 46 1010.4
20260506020622 7 23 3.2 8.0 0.00 0.00 0.00 50 1010.3
20260506020126 7 19 4.8 8.0 0.00 0.00 0.00 45 1010.2
20260506015631 8 334 3.2 11.3 0.00 0.00 0.00 45 1010.3
20260506015132 8 280 3.2 17.7 0.00 0.00 0.00 43 1010.2
20260506014614 8 308 8.0 17.7 0.00 0.00 0.00 43 1010.2
20260506014137 8 331 4.8 17.7 0.00 0.00 0.00 43 1010.1
20260506013620 8 350 9.7 17.7 0.00 0.00 0.00 42 1010.1
20260506013121 8 350 8.0 17.7 0.00 0.00 0.00 43 1010.0
20260506012625 8 314 8.0 14.5 0.00 0.00 0.00 43 1010.0
20260506012129 8 350 8.0 17.7 0.00 0.00 0.00 41 1010.0
20260506011653 8 292 4.8 24.1 0.00 0.00 0.00 41 1010.0
20260506011116 8 331 4.8 25.7 0.00 0.00 0.00 41 1009.9
20260506010618 9 272 12.9 24.1 0.00 0.00 0.00 41 1009.9
20260506010118 9 343 9.7 20.9 0.00 0.00 0.00 40 1009.8
20260506005621 9 336 9.7 20.9 0.00 0.00 0.00 40 1009.8
20260506005123 9 349 9.7 19.3 0.00 0.00 0.00 40 1009.7
20260506004648 9 325 8.0 17.7 0.00 0.00 0.00 39 1009.6
20260506004130 9 28 6.4 16.1 0.00 0.00 0.00 39 1009.6
20260506003615 9 10 8.0 17.7 0.00 0.00 0.00 39 1009.6
20260506003119 9 235 9.7 22.5 0.00 0.00 0.00 38 1009.6
20260506002623 9 325 14.5 24.1 0.00 0.00 0.00 39 1009.5
20260506002126 9 16 9.7 24.1 0.00 0.00 0.00 40 1009.5
20260506001631 9 9 14.5 25.7 0.00 0.00 0.00 38 1009.5
20260506001114 9 289 12.9 25.7 0.00 0.00 0.00 39 1009.5
20260506000618 9 348 11.3 16.1 0.00 0.00 0.00 39 1009.4
20260506000121 9 274 11.3 16.1 0.00 0.00 0.00 38 1009.3
20260505235626 10 336 6.4 20.9 0.00 0.00 0.00 39 1009.4
20260505235130 10 296 8.0 20.9 0.00 0.00 0.00 37 1009.4
20260505234613 10 300 3.2 25.7 0.00 0.00 0.00 37 1009.5
20260505234114 10 283 8.0 25.7 0.00 0.00 0.00 36 1009.4
20260505233616 10 31 6.4 22.5 0.00 0.00 0.00 36 1009.3
20260505233139 10 360 6.4 24.1 0.00 0.00 0.00 38 1009.3
20260505232622 10 338 9.7 24.1 0.00 0.00 0.00 37 1009.4
20260505232123 10 248 14.5 25.7 0.00 0.00 0.00 36 1009.5
20260505231625 10 334 6.4 25.7 0.00 0.00 0.00 36 1009.4
20260505231127 10 319 11.3 19.3 0.00 0.00 0.00 36 1009.4
20260505230629 10 288 8.0 19.3 0.00 0.00 0.00 36 1009.4
20260505230130 10 304 6.4 19.3 0.00 0.00 0.00 35 1009.3
20260505225612 10 261 4.8 16.1 0.00 0.00 0.00 38 1009.4
20260505225136 10 253 9.7 16.1 0.00 0.00 0.00 40 1009.5
20260505224616 10 117 9.7 24.1 0.00 0.00 0.00 36 1009.5
20260505224138 10 350 6.4 27.4 0.00 0.00 0.00 37 1009.5
20260505223622 10 327 14.5 27.4 0.00 0.00 0.00 36 1009.5
20260505223122 10 15 12.9 24.1 0.00 0.00 0.00 35 1009.5
20260505222625 10 337 14.5 24.1 0.00 0.00 0.00 35 1009.5
20260505222129 10 345 12.9 25.7 0.00 0.00 0.00 35 1009.4
20260505221612 10 285 6.4 25.7 0.00 0.00 0.00 38 1009.3
20260505221114 10 348 11.3 22.5 0.00 0.00 0.00 35 1009.3
20260505220637 10 264 11.3 24.1 0.00 0.00 0.00 35 1009.3
20260505220118 10 315 9.7 25.7 0.00 0.00 0.00 35 1009.4
20260505215621 10 17 9.7 25.7 0.00 0.00 0.00 37 1009.3
20260505215122 10 32 11.3 20.9 0.00 0.00 0.00 36 1009.5
20260505214625 10 286 11.3 29.0 0.00 0.00 0.00 36 1009.4
20260505214127 10 311 16.1 29.0 0.00 0.00 0.00 35 1009.5
20260505213630 10 338 17.7 29.0 0.00 0.00 0.00 36 1009.4
20260505213113 10 269 19.3 29.0 0.00 0.00 0.00 37 1009.5
20260505212614 10 221 12.9 29.0 0.00 0.00 0.00 34 1009.4
20260505212117 11 263 11.3 24.1 0.00 0.00 0.00 39 1009.3
20260505211617 10 292 9.7 29.0 0.00 0.00 0.00 36 1009.4
20260505211140 10 340 14.5 30.6 0.00 0.00 0.00 37 1009.5
20260505210620 10 310 16.1 27.4 0.00 0.00 0.00 36 1009.5
20260505210125 10 24 16.1 27.4 0.00 0.00 0.00 37 1009.5
20260505205625 10 303 11.3 27.4 0.00 0.00 0.00 36 1009.4
20260505205130 10 250 11.3 35.4 0.00 0.00 0.00 37 1009.5
20260505204632 10 315 16.1 35.4 0.00 0.00 0.00 38 1009.4
20260505204113 10 308 9.7 37.0 0.00 0.00 0.00 36 1009.5
20260505203615 10 33 16.1 37.0 0.00 0.00 0.00 35 1009.6
20260505203117 11 348 17.7 32.2 0.00 0.00 0.00 36 1009.6
20260505202641 10 270 12.9 30.6 0.00 0.00 0.00 36 1009.6
20260505202122 10 242 11.3 48.3 0.00 0.00 0.00 41 1009.5
20260505201645 11 309 20.9 48.3 0.00 0.00 0.00 36 1009.6
20260505201146 11 290 16.1 35.4 0.00 0.00 0.00 37 1009.5
20260505200627 10 283 14.5 32.2 0.00 0.00 0.00 34 1009.6
20260505200113 10 315 8.0 24.1 0.00 0.00 0.00 38 1009.5
20260505195613 10 289 11.3 32.2 0.00 0.00 0.00 36 1009.6
20260505195118 11 339 16.1 32.2 0.00 0.00 0.00 37 1009.6
20260505194620 10 334 11.3 27.4 0.00 0.00 0.00 35 1009.6
20260505194126 10 293 9.7 33.8 0.00 0.00 0.00 36 1009.6
20260505193629 10 335 12.9 33.8 0.00 0.00 0.00 38 1009.6
20260505193113 10 308 16.1 32.2 0.00 0.00 0.00 34 1009.7
20260505192614 11 341 11.3 30.6 0.00 0.00 0.00 35 1009.7
20260505192118 11 250 19.3 30.6 0.00 0.00 0.00 41 1009.6
20260505191620 11 327 11.3 25.7 0.00 0.00 0.00 43 1009.6
20260505191143 10 277 8.0 27.4 0.00 0.00 0.00 37 1009.7
20260505190648 11 302 8.0 27.4 0.00 0.00 0.00 40 1009.6
20260505190131 10 266 9.7 37.0 0.00 0.00 0.00 36 1009.6
20260505185634 10 237 8.0 38.6 0.00 0.00 0.00 38 1009.7
20260505185135 10 238 14.5 25.7 0.00 0.00 0.00 35 1009.8
20260505184617 10 360 12.9 25.7 0.00 0.00 0.00 42 1009.8
20260505184119 10 321 11.3 25.7 0.00 0.00 0.00 36 1009.7
20260505183621 10 346 14.5 38.6 0.00 0.00 0.00 39 1009.7
20260505183123 10 257 12.9 40.2 0.00 0.00 0.00 39 1009.7
20260505182625 10 292 16.1 33.8 0.00 0.00 0.00 45 1009.6
20260505182129 10 340 16.1 33.8 0.00 0.00 0.00 36 1009.5
20260505181631 10 296 19.3 33.8 0.00 0.00 0.00 39 1009.4
20260505181134 9 302 9.7 32.2 0.00 0.00 0.00 36 1009.5
20260505180613 10 275 6.4 24.1 0.00 0.00 0.00 42 1009.5
20260505180153 9 323 12.9 29.0 0.00 0.00 0.00 41 1009.4
20260505175616 10 11 14.5 29.0 0.00 0.00 0.00 34 1009.4
20260505175117 10 271 9.7 35.4 0.00 0.00 0.00 41 1009.6
20260505174621 9 276 17.7 29.0 0.00 0.00 0.00 39 1009.5
20260505174125 9 329 16.1 29.0 0.00 0.00 0.00 39 1009.6
20260505173613 9 229 16.1 32.2 0.00 0.00 0.00 45 1009.6
20260505173151 9 321 20.9 32.2 0.00 0.00 0.00 37 1009.6
20260505172631 9 337 12.9 32.2 0.00 0.00 0.00 36 1009.5
20260505172114 9 350 16.1 32.2 0.00 0.00 0.00 36 1009.6
20260505171618 9 61 4.8 32.2 0.00 0.00 0.00 35 1009.5
20260505171120 9 341 11.3 30.6 0.00 0.00 0.00 35 1009.7
20260505170622 9 218 11.3 30.6 0.00 0.00 0.00 35 1009.7
20260505170146 9 333 12.9 32.2 0.00 0.00 0.00 38 1009.6
20260505165629 9 254 12.9 41.8 0.00 0.00 0.00 34 1009.7
20260505165112 9 360 20.9 41.8 0.00 0.00 0.00 34 1009.8
20260505164616 8 23 17.7 33.8 0.00 0.00 0.00 39 1009.7
20260505164121 8 277 9.7 37.0 0.00 0.00 0.00 36 1009.8
20260505163623 8 350 20.9 37.0 0.00 0.00 0.00 34 1009.7
20260505163127 8 253 12.9 33.8 0.00 0.00 0.00 38 1009.8
20260505162614 8 181 12.9 29.0 0.00 0.00 0.00 36 1009.7
20260505162127 8 169 6.4 29.0 0.00 0.00 0.00 38 1009.8
20260505161630 9 101 16.1 29.0 0.00 0.00 0.00 35 1009.6